McComb, MS

11:46 AM CST on January 19, 2018 (GMT -0600)
McComb-Pike County-Lewis

Weather History for KMCB - September, 2013

Change the Weather History Date:

Friday, September 20, 2013

  Actual Average Record
Temperature  
Mean Temperature 81 °F -  
Max Temperature 91 °F 84 °F 97 °F (2005)
Min Temperature 73 °F 64 °F 45 °F (1981)
Cooling Degree Days 16    
Growing Degree Days 31 (Base 50)    
Moisture  
Dew Point 74 °F    
Average Humidity 89    
Maximum Humidity 100    
Minimum Humidity 55    
Precipitation  
Precipitation 0.09 in - - ()
Sea Level Pressure  
Sea Level Pressure 29.91 in    
Wind  
Wind Speed 3 mph (South)    
Max Wind Speed 15 mph    
Max Gust Speed 21 mph    
Visibility 7 miles    
Events Rain , Thunderstorm    
Averages and records for this station are not official NWS values.
T = Trace of Precipitation, MM = Missing Value Source: NWS Daily Summary

Daily Weather History Graph

Daily Weather History Graph

Search for Another Location

Airport or City:

Trip Planner

Search our weather history database for the weather conditions in past years. The results will help you decide how hot, cold, wet, or windy it might be!

Date:

Astronomy

Sep. 20, 2013 Rise Set
Actual Time 6:49 AM CDT 7:00 PM CDT
Civil Twilight 6:24 AM CDT 7:24 PM CDT
Nautical Twilight 5:56 AM CDT 7:53 PM CDT
Astronomical Twilight 5:28 AM CDT 8:21 PM CDT
Moon 7:44 PM CDT (9/20) 7:56 AM CDT (9/20)
Length of Visible Light 12h 59m
Length of Day
12h 11m
Full, 98% of the Moon is Illuminated
Sep 20
Full
Sep 26
Last Quarter
Oct 4
New
Oct 11
First Quarter
Oct 18
Full

Hourly Weather History & Observations

Time (CDT) Temp. Heat Index Dew Point Humidity Pressure Visibility Wind Dir Wind Speed Gust Speed Precip Events Conditions
12:48 AM 73.4 °F - 71.6 °F 94% 30.01 in 7.0 mi Calm Calm - N/A   Partly Cloudy
12:53 AM 73.0 °F - 72.0 °F 96% 30.00 in 7.0 mi Calm Calm - N/A   Clear
1:04 AM 73.4 °F - 71.6 °F 94% 30.01 in 7.0 mi Calm Calm - N/A   Scattered Clouds
1:48 AM 73.4 °F - 71.6 °F 94% 30.00 in 6.0 mi Calm Calm - N/A   Mostly Cloudy
1:53 AM 73.0 °F - 72.0 °F 96% 29.98 in 6.0 mi Calm Calm - N/A   Mostly Cloudy
2:01 AM 73.4 °F - 71.6 °F 94% 30.00 in 6.0 mi Calm Calm - N/A   Overcast
2:20 AM 73.4 °F - 71.6 °F 94% 29.99 in 4.0 mi Calm Calm - N/A   Overcast
2:53 AM 73.0 °F - 72.0 °F 96% 29.97 in 3.0 mi Calm Calm - N/A   Overcast
3:46 AM 73.4 °F - 73.4 °F 100% 29.98 in 2.0 mi SSE 3.5 mph - N/A   Overcast
3:53 AM 73.9 °F - 73.0 °F 97% 29.97 in 2.5 mi SSE 3.5 mph - N/A   Overcast
4:00 AM 73.4 °F - 73.4 °F 100% 29.98 in 3.0 mi Calm Calm - N/A   Overcast
4:20 AM 73.4 °F - 73.4 °F 100% 29.98 in 2.0 mi Calm Calm - N/A   Overcast
4:45 AM 73.4 °F - 73.4 °F 100% 29.97 in 3.0 mi Calm Calm - N/A   Overcast
4:53 AM 73.9 °F - 73.0 °F 97% 29.96 in 3.0 mi Calm Calm - N/A   Overcast
5:00 AM 73.4 °F - 73.4 °F 100% 29.97 in 2.0 mi Calm Calm - N/A   Overcast
5:12 AM 73.4 °F - 73.4 °F 100% 29.97 in 1.5 mi Calm Calm - N/A   Overcast
5:53 AM 73.9 °F - 73.0 °F 97% 29.96 in 1.5 mi Calm Calm - N/A   Overcast
6:18 AM 73.4 °F - 73.4 °F 100% 29.97 in 0.8 mi East 3.5 mph - N/A   Mist
6:33 AM 73.4 °F - 73.4 °F 100% 29.97 in 1.0 mi Calm Calm - N/A   Mist
6:53 AM 73.9 °F - 73.0 °F 97% 29.96 in 2.5 mi Variable 3.5 mph - N/A   Overcast
7:12 AM 73.4 °F - 73.4 °F 100% 29.97 in 1.2 mi SE 4.6 mph - N/A   Overcast
7:48 AM 75.2 °F - 73.4 °F 94% 29.97 in 2.5 mi SSE 4.6 mph - N/A   Overcast
7:53 AM 75.0 °F - 73.9 °F 96% 29.96 in 2.0 mi SSE 3.5 mph - N/A   Overcast
8:27 AM 75.2 °F - 73.4 °F 94% 29.97 in 3.0 mi SE 4.6 mph - N/A   Overcast
8:53 AM 77.0 °F - 75.0 °F 94% 29.96 in 9.0 mi SSE 8.1 mph - N/A   Overcast
9:21 AM 80.6 °F 86.2 °F 75.2 °F 84% 29.97 in 10.0 mi SSE 11.5 mph - N/A   Mostly Cloudy
9:29 AM 82.4 °F 89.5 °F 75.2 °F 79% 29.97 in 10.0 mi South 10.4 mph - N/A   Mostly Cloudy
9:45 AM 82.4 °F 88.2 °F 73.4 °F 74% 29.97 in 10.0 mi South 9.2 mph - N/A   Mostly Cloudy
9:53 AM 82.0 °F 87.9 °F 73.9 °F 76% 29.95 in 10.0 mi SSE 8.1 mph - N/A   Mostly Cloudy
10:36 AM 82.4 °F 88.2 °F 73.4 °F 74% 29.96 in 10.0 mi South 8.1 mph - N/A   Mostly Cloudy
10:53 AM 84.0 °F 90.2 °F 73.0 °F 69% 29.94 in 10.0 mi SSE 10.4 mph - N/A   Scattered Clouds
11:53 AM 84.9 °F 91.4 °F 73.0 °F 67% 29.91 in 10.0 mi SE 8.1 mph - N/A   Scattered Clouds
12:53 PM 88.0 °F 95.6 °F 73.0 °F 61% 29.89 in 10.0 mi South 15.0 mph 19.6 mph N/A   Scattered Clouds
1:53 PM 88.0 °F 93.8 °F 71.1 °F 57% 29.86 in 10.0 mi SSE 11.5 mph 20.7 mph N/A   Scattered Clouds
2:53 PM 89.1 °F 95.0 °F 71.1 °F 55% 29.82 in 10.0 mi South 9.2 mph 20.7 mph N/A   Scattered Clouds
3:53 PM 87.1 °F 94.5 °F 73.0 °F 63% 29.82 in 10.0 mi South 13.8 mph 19.6 mph N/A   Clear
4:11 PM 82.4 °F 88.2 °F 73.4 °F 74% 29.83 in 9.0 mi SW 6.9 mph - 0.01 in Rain , Thunderstorm Light Thunderstorms and Rain
4:35 PM 78.8 °F - 75.2 °F 89% 29.83 in 10.0 mi WSW 3.5 mph - 0.01 in Rain Light Rain
4:53 PM 79.0 °F - 75.0 °F 88% 29.82 in 10.0 mi Calm Calm - 0.01 in   Partly Cloudy
5:53 PM 79.0 °F - 75.9 °F 90% 29.80 in 10.0 mi Calm Calm - 0.01 in   Partly Cloudy
6:13 PM 78.8 °F - 75.2 °F 89% 29.83 in 1.8 mi WSW 9.2 mph - 0.06 in Rain Heavy Rain
6:22 PM 78.8 °F - 75.2 °F 89% 29.82 in 3.0 mi Calm Calm - 0.07 in Rain Light Rain
6:42 PM 78.8 °F - 75.2 °F 89% 29.84 in 10.0 mi West 5.8 mph - 0.07 in Thunderstorm Mostly Cloudy
6:53 PM 77.0 °F - 75.0 °F 94% 29.82 in 10.0 mi Calm Calm - 0.07 in Thunderstorm Mostly Cloudy
7:05 PM 78.8 °F - 75.2 °F 89% 29.84 in 10.0 mi Calm Calm - N/A   Overcast
7:20 PM 78.8 °F - 75.2 °F 89% 29.84 in 10.0 mi Calm Calm - N/A   Mostly Cloudy
7:49 PM 77.0 °F - 75.2 °F 94% 29.84 in 10.0 mi Calm Calm - 0.00 in Rain , Thunderstorm Light Rain
7:53 PM 77.0 °F - 75.9 °F 96% 29.83 in 10.0 mi Calm Calm - 0.00 in Thunderstorm Mostly Cloudy
8:03 PM 77.0 °F - 75.2 °F 94% 29.84 in 9.0 mi NW 8.1 mph - N/A   Mostly Cloudy
8:25 PM 77.0 °F - 73.4 °F 89% 29.85 in 10.0 mi Calm Calm - N/A   Scattered Clouds
8:53 PM 75.9 °F - 75.0 °F 97% 29.83 in 9.0 mi Calm Calm - N/A   Partly Cloudy
9:46 PM 77.0 °F - 75.2 °F 94% 29.84 in 10.0 mi Calm Calm - N/A   Mostly Cloudy
9:53 PM 77.0 °F - 75.0 °F 94% 29.83 in 10.0 mi South 5.8 mph - N/A   Mostly Cloudy
10:21 PM 77.0 °F - 75.2 °F 94% 29.84 in 10.0 mi SSE 5.8 mph - N/A   Scattered Clouds
10:53 PM 77.0 °F - 75.0 °F 94% 29.82 in 10.0 mi South 5.8 mph - N/A   Scattered Clouds
11:53 PM 78.1 °F - 75.9 °F 93% 29.81 in 10.0 mi South 6.9 mph - N/A   Mostly Cloudy